| time (UTC) | temp F | wind direction | speed MPH | gust MPH | rain 1hr in | rain 24hr in | rain mn in | humidity % | barometer mb |
| 20260502163001 | 59 | 105 | 0.0 | 2.0 | 0.00 | 0.00 | 0.00 | 51 | 1014.1 |
| 20260502161601 | 56 | 90 | 0.0 | 2.0 | 0.00 | 0.00 | 0.00 | 55 | 1014.2 |
| 20260502151613 | 52 | 116 | 0.0 | 2.0 | 0.00 | 0.00 | 0.00 | 61 | 1014.5 |
| 20260502150105 | 51 | 89 | 0.0 | 2.0 | 0.00 | 0.00 | 0.00 | 65 | 1014.4 |
| 20260502130105 | 45 | 119 | 0.0 | 3.0 | 0.00 | 0.00 | 0.00 | 72 | 1013.7 |
| 20260502123101 | 47 | 111 | 1.0 | 2.0 | 0.00 | 0.00 | 0.00 | 68 | 1013.8 |
| 20260502121551 | 48 | 95 | 1.0 | 3.0 | 0.00 | 0.00 | 0.00 | 68 | 1013.9 |
| 20260502114551 | 48 | 88 | 0.0 | 3.0 | 0.00 | 0.00 | 0.00 | 65 | 1013.9 |
| 20260502113052 | 47 | 136 | 0.0 | 2.0 | 0.00 | 0.00 | 0.00 | 68 | 1013.9 |
| 20260502111550 | 48 | 158 | 0.0 | 0.0 | 0.00 | 0.00 | 0.00 | 68 | 1013.8 |
| 20260502110047 | 48 | 131 | 0.0 | 2.0 | 0.00 | 0.00 | 0.00 | 70 | 1013.8 |
| 20260502104546 | 47 | 121 | 1.0 | 3.0 | 0.00 | 0.00 | 0.00 | 70 | 1013.9 |
| 20260502103045 | 46 | 117 | 1.0 | 3.0 | 0.00 | 0.00 | 0.00 | 69 | 1013.7 |
| 20260502101543 | 46 | 92 | 1.0 | 2.0 | 0.00 | 0.00 | 0.00 | 69 | 1013.9 |
| 20260502071511 | 60 | 295 | 2.0 | 5.0 | 0.00 | 0.00 | 0.00 | 52 | 1014.6 |
| 20260502070011 | 60 | 240 | 2.0 | 8.0 | 0.00 | 0.00 | 0.00 | 51 | 1014.7 |
| 20260502064516 | 59 | 160 | 0.0 | 3.0 | 0.00 | 0.00 | 0.00 | 49 | 1014.3 |
| 20260502063008 | 60 | 183 | 0.0 | 1.0 | 0.00 | 0.00 | 0.00 | 48 | 1013.9 |
| 20260502061508 | 61 | 244 | 0.0 | 4.0 | 0.00 | 0.00 | 0.00 | 46 | 1013.7 |
| 20260502060008 | 62 | 225 | 1.0 | 2.0 | 0.00 | 0.00 | 0.00 | 45 | 1013.6 |
| 20260502054509 | 63 | 97 | 0.0 | 2.0 | 0.00 | 0.00 | 0.00 | 42 | 1013.5 |
| 20260502053006 | 64 | 76 | 0.0 | 2.0 | 0.00 | 0.00 | 0.00 | 41 | 1013.4 |
| 20260502051514 | 65 | 232 | 0.0 | 7.0 | 0.00 | 0.00 | 0.00 | 40 | 1013.4 |
| 20260502050005 | 66 | 200 | 1.0 | 5.0 | 0.00 | 0.00 | 0.00 | 38 | 1013.4 |
| 20260502044505 | 67 | 246 | 3.0 | 7.0 | 0.00 | 0.00 | 0.00 | 37 | 1013.0 |
| 20260502043006 | 70 | 317 | 3.0 | 8.0 | 0.00 | 0.00 | 0.00 | 32 | 1012.8 |
| 20260502041505 | 69 | 315 | 2.0 | 11.0 | 0.00 | 0.00 | 0.00 | 32 | 1013.2 |
| 20260502040004 | 68 | 169 | 2.0 | 5.0 | 0.00 | 0.00 | 0.00 | 33 | 1013.0 |
| 20260502034504 | 70 | 235 | 1.0 | 3.0 | 0.00 | 0.00 | 0.00 | 31 | 1012.5 |
| 20260502033003 | 70 | 350 | 3.0 | 10.0 | 0.00 | 0.00 | 0.00 | 30 | 1011.6 |
| 20260502031503 | 71 | 334 | 3.0 | 7.0 | 0.00 | 0.00 | 0.00 | 26 | 1011.9 |
| 20260502030002 | 72 | 11 | 0.0 | 5.0 | 0.00 | 0.00 | 0.00 | 22 | 1011.5 |
| 20260502024506 | 72 | 90 | 0.0 | 2.0 | 0.00 | 0.00 | 0.00 | 21 | 1011.4 |
| 20260502023002 | 74 | 292 | 0.0 | 2.0 | 0.00 | 0.00 | 0.00 | 20 | 1011.2 |
| 20260502021501 | 75 | 295 | 1.0 | 9.0 | 0.00 | 0.00 | 0.00 | 18 | 1011.2 |
| 20260502020100 | 74 | 72 | 3.0 | 8.0 | 0.00 | 0.00 | 0.00 | 19 | 1011.1 |
| 20260502014603 | 75 | 113 | 3.0 | 11.0 | 0.00 | 0.00 | 0.00 | 18 | 1011.2 |
| 20260502013102 | 75 | 57 | 4.0 | 11.0 | 0.00 | 0.00 | 0.00 | 18 | 1011.2 |
| 20260502011559 | 76 | 104 | 4.0 | 11.0 | 0.00 | 0.00 | 0.00 | 18 | 1011.3 |
| 20260502010101 | 75 | 47 | 5.0 | 10.0 | 0.00 | 0.00 | 0.00 | 18 | 1011.5 |
| 20260502004603 | 76 | 119 | 4.0 | 10.0 | 0.00 | 0.00 | 0.00 | 17 | 1011.8 |
| 20260502003052 | 77 | 130 | 2.0 | 7.0 | 0.00 | 0.00 | 0.00 | 17 | 1011.9 |
| 20260502001551 | 77 | 75 | 2.0 | 7.0 | 0.00 | 0.00 | 0.00 | 18 | 1012.0 |
| 20260502000101 | 78 | 273 | 0.0 | 7.0 | 0.00 | 0.00 | 0.00 | 17 | 1012.1 |
| 20260501234551 | 80 | 94 | 2.0 | 9.0 | 0.00 | 0.00 | 0.00 | 18 | 1012.2 |
| 20260501233050 | 79 | 326 | 2.0 | 13.0 | 0.00 | 0.00 | 0.00 | 18 | 1012.5 |
| 20260501231549 | 78 | 77 | 2.0 | 13.0 | 0.00 | 0.00 | 0.00 | 19 | 1012.9 |
| 20260501230046 | 78 | 138 | 3.0 | 8.0 | 0.00 | 0.00 | 0.00 | 19 | 1013.2 |
| 20260501224540 | 77 | 98 | 7.0 | 14.0 | 0.00 | 0.00 | 0.00 | 19 | 1013.5 |
| 20260501223040 | 79 | 79 | 4.0 | 13.0 | 0.00 | 0.00 | 0.00 | 19 | 1013.8 |
| 20260501221538 | 79 | 126 | 3.0 | 9.0 | 0.00 | 0.00 | 0.00 | 18 | 1014.1 |
| 20260501220034 | 79 | 159 | 5.0 | 10.0 | 0.00 | 0.00 | 0.00 | 17 | 1014.5 |
| 20260501214537 | 78 | 143 | 5.0 | 15.0 | 0.00 | 0.00 | 0.00 | 17 | 1014.6 |
| 20260501213030 | 76 | 111 | 3.0 | 12.0 | 0.00 | 0.00 | 0.00 | 21 | 1014.9 |
| 20260501211529 | 77 | 132 | 5.0 | 12.0 | 0.00 | 0.00 | 0.00 | 19 | 1015.1 |
| 20260501210027 | 78 | 113 | 6.0 | 14.0 | 0.00 | 0.00 | 0.00 | 19 | 1015.2 |
| 20260501204524 | 76 | 80 | 5.0 | 12.0 | 0.00 | 0.00 | 0.00 | 20 | 1015.5 |
| 20260501203024 | 76 | 109 | 7.0 | 21.0 | 0.00 | 0.00 | 0.00 | 20 | 1015.8 |
| 20260501201520 | 76 | 80 | 1.0 | 10.0 | 0.00 | 0.00 | 0.00 | 21 | 1016.2 |
| 20260501200019 | 76 | 30 | 2.0 | 8.0 | 0.00 | 0.00 | 0.00 | 20 | 1016.4 |
| 20260501194516 | 76 | 245 | 2.0 | 9.0 | 0.00 | 0.00 | 0.00 | 21 | 1016.6 |
| 20260501193016 | 75 | 186 | 2.0 | 7.0 | 0.00 | 0.00 | 0.00 | 23 | 1016.8 |
| 20260501191509 | 74 | 96 | 3.0 | 9.0 | 0.00 | 0.00 | 0.00 | 22 | 1017.0 |
| 20260501190005 | 73 | 96 | 1.0 | 7.0 | 0.00 | 0.00 | 0.00 | 22 | 1017.2 |
| 20260501184504 | 72 | 74 | 6.0 | 10.0 | 0.00 | 0.00 | 0.00 | 25 | 1017.4 |
| 20260501183006 | 72 | 88 | 5.0 | 11.0 | 0.00 | 0.00 | 0.00 | 24 | 1017.4 |
| 20260501181600 | 72 | 99 | 4.0 | 12.0 | 0.00 | 0.00 | 0.00 | 25 | 1017.6 |